[[{"header":{"parameterUnit":"m.s-1","parameterCategory":2,"la1":30.2991,"la2":30.254,"lo1":-89.0895,"lo2":-89.0444,"dy":0.0017,"dx":0.0017,"nx":28,"ny":28,"refTime":"2024-06-30T21:00:00:Z","depth":"0","parameterNumber":2,"parameterNumberName":"U-component_of_CURRENTS"},"data":[0,0,0,0,0,0,0,0,0,0,0,0,0,0,0,0,0,0,0,0,0,0,0,0,0,0,0,0,0,0,0,0,0,0,0,0,0,0,0,0,0,0,0,0,0,0,0,0,0,0,0,0,0,0,0,0,0,0,0.0924,0.0924,0,0.095,0.095,0.095,0.0937,0.0937,0.0936,0.0936,0.0935,0.0935,0.0935,0,0,0,0,0,0,0,0,0,0,0,0,0,0.0832,0.0833,0.0923,0.0924,0.0925,0.0949,0.095,0.095,0.0937,0.0937,0.0936,0.0936,0.0934,0.0935,0.0935,0,0,0,0,0,0,0,0,0,0,0,0,0,0.0863,0.0834,0.0923,0.0923,0.0924,0.0949,0.095,0.095,0.0937,0.0937,0.0936,0.0935,0.0934,0.0935,0.0935,0.0951,0,0,0.0937,0.0937,0,0,0,0,0,0,0,0,0.0862,0.0866,0.0923,0.0924,0.0924,0.0942,0.0917,0.095,0.0937,0.0929,0.0936,0.0935,0.0937,0.0937,0.094,0.0951,0.0951,0.0937,0.0937,0.0937,0.0938,0,0,0,0,0,0,0,0.086,0.0865,0.0931,0.0924,0.0924,0.0912,0.0915,0.0923,0.0933,0.093,0.093,0.0937,0.0936,0.0939,0.094,0.0951,0.0937,0.0937,0.0938,0.0938,0.1001,0.1002,0,0,0,0,0,0,0.0865,0.0864,0.093,0.0932,0.0894,0.0914,0.0918,0.0934,0.0934,0.0934,0.0938,0.0937,0.0939,0.0939,0.0939,0.099,0.0937,0.0938,0.0938,0.1,0.1001,0.1003,0,0,0,0,0,0,0.0863,0.0871,0.0929,0.09,0.0907,0.0917,0.0935,0.0935,0.094,0.0941,0.094,0.0942,0.0938,0.0939,0.0957,0.0988,0.0938,0.0939,0.0998,0.1,0.1002,0.1069,0,0,0,0,0,0,0.086,0.087,0.0879,0.0901,0.0909,0.0948,0.0936,0.0936,0.0947,0.0945,0.0945,0.0944,0.0938,0.0956,0.0957,0.0988,0.0939,0.0996,0.0999,0.1001,0.1065,0.1073,0.108,0,0,0,0,0,0.0857,0.087,0.088,0.0887,0.0923,0.0949,0.0951,0.0954,0.0948,0.0954,0.0959,0.0944,0.0973,0.0958,0.0959,0.099,0.0995,0.0998,0.1001,0.1062,0.1072,0.108,0,0,0,0,0,0,0.082,0.0872,0.0882,0.0906,0.0929,0.0948,0.0952,0.0958,0.0967,0.0964,0.096,0.096,0.0988,0.0979,0.0963,0.1016,0.0982,0.0986,0.1028,0.1038,0.1045,0.1057,0.0939,0,0,0,0,0,0.0822,0.0853,0.089,0.0907,0.0921,0.0938,0.0947,0.0956,0.0969,0.0972,0.0978,0.0985,0.1002,0.1011,0.1018,0.1048,0.1071,0.1069,0.1076,0.1083,0.1094,0.1154,0.1168,0.1013,0.1013,0.1013,0,0,0.0808,0.0843,0.0856,0.0902,0.0917,0.0951,0.0941,0.0961,0.0991,0.0971,0.1005,0.1009,0.1015,0.1049,0.1061,0.1046,0.1145,0.1087,0.1092,0.11,0.1159,0.1174,0.1188,0.1015,0.1015,0.1014,0,0,0.0808,0.0831,0.0863,0.0892,0.0932,0.0951,0.0961,0.0992,0.1005,0.1039,0.1039,0.1066,0.1081,0.1106,0.1116,0.117,0.118,0.1168,0.1221,0.1279,0.1293,0.1305,0.138,0.1398,0.1175,0.1175,0.1176,0,0.0786,0.0846,0.0871,0.0913,0.0943,0.0957,0.0998,0.1017,0.105,0.1077,0.1055,0.1116,0.1114,0.118,0.1197,0.119,0.1227,0.1186,0.1291,0.1303,0.1314,0.1388,0.1407,0.1179,0.1179,0.1178,0.1178,0,0.0826,0.087,0.0887,0.0957,0.0987,0.1021,0.1062,0.109,0.1105,0.1133,0.1191,0.1199,0.1241,0.1244,0.1234,0.132,0.1324,0.1292,0.127,0.1334,0.1408,0.1427,0.1184,0.1183,0.1182,0.1181,0,0,0.0798,0.0897,0.0907,0.0956,0.1019,0.1054,0.1104,0.1169,0.1221,0.124,0.1314,0.1337,0.1347,0.136,0.1363,0.1407,0.1519,0.1385,0.1387,0.1464,0.1673,0.1799,0.1832,0.1506,0.1509,0.1511,0.1701,0,0.0827,0.0917,0.0961,0.1045,0.1099,0.1136,0.119,0.1245,0.1287,0.1357,0.1377,0.1439,0.1391,0.1425,0.1463,0.1506,0.1568,0.1472,0.1594,0.1599,0.1707,0.1857,0.2032,0.2226,0.1719,0.1723,0.1725,0,0.0873,0.0931,0.1018,0.1123,0.1149,0.1197,0.1301,0.1354,0.144,0.147,0.1527,0.1548,0.1629,0.1568,0.1687,0.163,0.1662,0.1684,0.1691,0.1798,0.1761,0.2075,0.2279,0.2366,0.1754,0.1751,0.1749,0,0.0881,0.0983,0.1057,0.1091,0.1196,0.1244,0.1302,0.1391,0.1458,0.1557,0.1622,0.169,0.176,0.1795,0.1846,0.1777,0.1984,0.1891,0.2041,0.2049,0.2219,0.2238,0.2528,0.1987,0.1987,0.1986,0.1986,0,0.0923,0.0988,0.1067,0.1113,0.1204,0.1271,0.1378,0.1438,0.1546,0.1652,0.1689,0.1799,0.182,0.1931,0.1928,0.209,0.2061,0.2106,0.2129,0.225,0.2269,0.2364,0.2257,0.1994,0.1992,0.1991,0.1989,0,0.0946,0.0996,0.1082,0.118,0.1216,0.1283,0.1416,0.1498,0.1596,0.1741,0.1783,0.1921,0.209,0.2137,0.2241,0.2247,0.2336,0.2393,0.255,0.2589,0.2786,0.2672,0.2615,0.2512,0.26,0.2605,0.2609,0,0.0974,0.1018,0.1112,0.1157,0.1207,0.131,0.1388,0.1503,0.1598,0.1827,0.1908,0.2122,0.2291,0.2531,0.2623,0.2739,0.2546,0.292,0.2812,0.2896,0.2783,0.2443,0.2329,0.3067,0.3074,0.308,0.3085,0,0.1016,0.1036,0.1095,0.1173,0.1253,0.1352,0.1476,0.1563,0.1727,0.1877,0.2116,0.2283,0.2595,0.2858,0.3039,0.3087,0.2866,0.3046,0.3107,0.318,0.2853,0.2735,0.2828,0.3138,0.3133,0.3129,0.3126,0.3124,0.1029,0.1061,0.1116,0.1195,0.1274,0.1387,0.1475,0.1636,0.1817,0.2073,0.2242,0.2556,0.2982,0.3303,0.3361,0.3644,0.3222,0.3658,0.3518,0.3169,0.3059,0.3285,0.3622,0.3619,0.3617,0.3615,0.3614,0,0.1037,0.1073,0.1141,0.1222,0.1285,0.1347,0.1522,0.1624,0.184,0.2156,0.2399,0.2983,0.3408,0.3707,0.4134,0.417,0.3837,0.4104,0.3725,0.3583,0.3886,0.3915,0.4365,0.4365,0.4365,0.4365,0.4365,0.4365,0.1046,0.1086,0.1118,0.12,0.1261,0.1347,0.1445,0.1636,0.1868,0.2314,0.2689,0.2976,0.3557,0.4235,0.4573,0.4513,0.414,0.4038,0.3756,0.4137,0.4084,0.4034,0.4051,0.4522,0.4522,0.345,0.3443,0.3437]},{"header":{"parameterUnit":"m.s-1","parameterCategory":2,"la1":30.2991,"la2":30.254,"lo1":-89.0895,"lo2":-89.0444,"dy":0.0017,"dx":0.0017,"nx":28,"ny":28,"refTime":"2024-06-30T21:00:00:Z","depth":"0","parameterNumber":3,"parameterNumberName":"V-component_of_CURRENTS"},"data":[0,0,0,0,0,0,0,0,0,0,0,0,0,0,0,0,0,0,0,0,0,0,0,0,0,0,0,0,0,0,0,0,0,0,0,0,0,0,0,0,0,0,0,0,0,0,0,0,0,0,0,0,0,0,0,0,0,0,-0.1014,-0.1015,0,-0.1107,-0.1108,-0.1109,-0.1176,-0.1176,-0.1177,-0.1177,-0.1341,-0.1345,-0.1349,0,0,0,0,0,0,0,0,0,0,0,0,0,-0.0952,-0.0952,-0.1014,-0.1015,-0.1016,-0.1107,-0.1108,-0.111,-0.1176,-0.1176,-0.1177,-0.1177,-0.134,-0.1344,-0.1349,0,0,0,0,0,0,0,0,0,0,0,0,0,-0.1006,-0.0952,-0.1014,-0.1059,-0.1064,-0.1107,-0.1108,-0.111,-0.1176,-0.1176,-0.1177,-0.1178,-0.1338,-0.1344,-0.135,-0.1373,0,0,-0.1368,-0.137,0,0,0,0,0,0,0,0,-0.1003,-0.1008,-0.1052,-0.1056,-0.1062,-0.113,-0.1146,-0.1201,-0.1176,-0.1135,-0.1177,-0.1178,-0.1276,-0.1287,-0.1303,-0.1381,-0.1388,-0.1368,-0.1372,-0.1374,-0.1376,0,0,0,0,0,0,0,-0.0999,-0.1005,-0.1052,-0.1053,-0.1059,-0.1095,-0.1103,-0.1157,-0.1203,-0.1138,-0.1143,-0.1151,-0.1279,-0.1297,-0.1308,-0.139,-0.1368,-0.1373,-0.1377,-0.1379,-0.1527,-0.1527,0,0,0,0,0,0,-0.0981,-0.1001,-0.1049,-0.1055,-0.1032,-0.1095,-0.1104,-0.1108,-0.1201,-0.1214,-0.1151,-0.1154,-0.1287,-0.1301,-0.1314,-0.1368,-0.1374,-0.138,-0.1383,-0.1526,-0.1527,-0.1527,0,0,0,0,0,0,-0.0979,-0.0984,-0.1046,-0.103,-0.104,-0.1095,-0.1099,-0.111,-0.1135,-0.1209,-0.1225,-0.1165,-0.1288,-0.1306,-0.137,-0.1374,-0.1383,-0.1388,-0.1526,-0.1526,-0.1527,-0.1462,0,0,0,0,0,0,-0.0977,-0.0983,-0.0984,-0.1028,-0.104,-0.1069,-0.1099,-0.1111,-0.1138,-0.1143,-0.1227,-0.1242,-0.129,-0.136,-0.1375,-0.1382,-0.1393,-0.1525,-0.1526,-0.1527,-0.1464,-0.1461,-0.1458,0,0,0,0,0,-0.0975,-0.097,-0.0983,-0.0989,-0.1037,-0.1069,-0.1078,-0.1121,-0.1138,-0.1146,-0.1206,-0.124,-0.1375,-0.1365,-0.1383,-0.1392,-0.1525,-0.1526,-0.1527,-0.1466,-0.1461,-0.1458,0,0,0,0,0,0,-0.0941,-0.0977,-0.0993,-0.0999,-0.103,-0.108,-0.1092,-0.1118,-0.1171,-0.118,-0.1249,-0.1269,-0.1323,-0.1368,-0.1355,-0.1436,-0.1454,-0.1458,-0.1402,-0.1398,-0.1395,-0.1352,-0.1398,0,0,0,0,0,-0.0932,-0.094,-0.0979,-0.0984,-0.0997,-0.1044,-0.1063,-0.109,-0.1139,-0.1162,-0.1217,-0.1281,-0.1338,-0.1376,-0.1428,-0.1478,-0.1502,-0.1494,-0.1491,-0.1488,-0.1466,-0.1512,-0.1511,-0.153,-0.153,-0.153,0,0,-0.0917,-0.094,-0.0943,-0.0977,-0.1005,-0.1017,-0.1057,-0.1082,-0.1095,-0.1173,-0.1211,-0.1269,-0.1347,-0.1398,-0.1427,-0.144,-0.1496,-0.1489,-0.1486,-0.1465,-0.1513,-0.1511,-0.1509,-0.153,-0.153,-0.153,0,0,-0.0887,-0.0914,-0.0907,-0.0932,-0.097,-0.1,-0.1004,-0.1052,-0.1079,-0.1122,-0.118,-0.1237,-0.1324,-0.1377,-0.1417,-0.1429,-0.1472,-0.1453,-0.1411,-0.1457,-0.1456,-0.1454,-0.1479,-0.148,-0.1458,-0.1458,-0.1458,0,-0.0865,-0.0862,-0.091,-0.0913,-0.0922,-0.0986,-0.0976,-0.1018,-0.108,-0.1096,-0.1124,-0.1239,-0.1308,-0.137,-0.1377,-0.1419,-0.1445,-0.1419,-0.1451,-0.145,-0.145,-0.1476,-0.1478,-0.1455,-0.1455,-0.1456,-0.1456,0,-0.0828,-0.083,-0.0829,-0.0851,-0.0872,-0.0876,-0.0931,-0.0959,-0.0997,-0.1035,-0.1094,-0.1185,-0.125,-0.129,-0.1341,-0.1379,-0.1397,-0.1434,-0.1453,-0.1444,-0.1472,-0.1476,-0.1451,-0.1452,-0.1453,-0.1453,0,0,-0.0752,-0.0791,-0.0789,-0.0781,-0.0835,-0.0839,-0.0871,-0.0903,-0.091,-0.0987,-0.0998,-0.1109,-0.1154,-0.1201,-0.1279,-0.1326,-0.1356,-0.1374,-0.1378,-0.1383,-0.1442,-0.1478,-0.1486,-0.1403,-0.1403,-0.1403,-0.1461,0,-0.0697,-0.0678,-0.0719,-0.0695,-0.0684,-0.075,-0.0767,-0.0814,-0.0865,-0.0898,-0.0999,-0.1046,-0.1126,-0.1157,-0.1218,-0.1324,-0.1363,-0.1336,-0.1463,-0.1465,-0.1487,-0.149,-0.1453,-0.1503,-0.1465,-0.1465,-0.1466,0,-0.0632,-0.0629,-0.0595,-0.0603,-0.0603,-0.0605,-0.0628,-0.0653,-0.0735,-0.0774,-0.0848,-0.093,-0.1024,-0.1085,-0.1243,-0.1224,-0.1314,-0.1392,-0.1397,-0.145,-0.1508,-0.151,-0.1512,-0.1595,-0.1472,-0.1471,-0.1471,0,-0.0534,-0.0532,-0.0496,-0.0501,-0.0532,-0.0525,-0.0542,-0.0607,-0.062,-0.0695,-0.0712,-0.0839,-0.0901,-0.1034,-0.1215,-0.1227,-0.1375,-0.1418,-0.1527,-0.153,-0.153,-0.1533,-0.1612,-0.15,-0.1499,-0.1499,-0.1499,0,-0.0451,-0.0418,-0.0444,-0.0424,-0.0379,-0.0431,-0.0404,-0.0445,-0.0497,-0.0506,-0.0637,-0.0674,-0.0891,-0.1018,-0.1174,-0.1364,-0.135,-0.1506,-0.1549,-0.1508,-0.1509,-0.1608,-0.1702,-0.1501,-0.1501,-0.1501,-0.15,0,-0.0354,-0.0371,-0.0327,-0.0336,-0.0333,-0.0302,-0.0316,-0.0307,-0.0363,-0.038,-0.0399,-0.0552,-0.0725,-0.094,-0.1162,-0.1308,-0.1565,-0.1548,-0.1477,-0.1511,-0.1697,-0.179,-0.196,-0.2059,-0.1672,-0.1673,-0.1674,0,-0.0303,-0.0274,-0.0254,-0.0228,-0.0229,-0.02,-0.0188,-0.0234,-0.0238,-0.0309,-0.0315,-0.0471,-0.0578,-0.0915,-0.121,-0.1478,-0.1608,-0.1603,-0.1627,-0.1693,-0.1827,-0.189,-0.1966,-0.1598,-0.1599,-0.1599,-0.1599,0,-0.0212,-0.0211,-0.0185,-0.0132,-0.0102,-0.0067,-0.0058,-0.0037,-0.0097,-0.0108,-0.016,-0.0235,-0.058,-0.0828,-0.1196,-0.1414,-0.1694,-0.1619,-0.1708,-0.1791,-0.1844,-0.1963,-0.1563,-0.1602,-0.1601,-0.1601,-0.1601,-0.1601,-0.0149,-0.0115,-0.0088,-0.0036,0.0004,0.0057,0.0112,0.0113,0.0139,0.0165,0.0027,0.0032,-0.0341,-0.0858,-0.1218,-0.1692,-0.1761,-0.1782,-0.189,-0.1946,-0.2042,-0.1642,-0.1724,-0.1724,-0.1725,-0.1725,-0.1725,0,-0.008,-0.0052,0.0004,0.007,0.0136,0.0131,0.0192,0.0267,0.0334,0.0391,0.0375,0.0334,-0.015,-0.065,-0.1294,-0.1749,-0.2,-0.2025,-0.2079,-0.2151,-0.1787,-0.1779,-0.1852,-0.1852,-0.1852,-0.1852,-0.1851,-0.1851,-0.0044,0.0013,0.0037,0.0166,0.0224,0.0333,0.0387,0.051,0.0606,0.0827,0.0965,0.0998,0.0819,-0.0517,-0.147,-0.186,-0.217,-0.2359,-0.2523,-0.2219,-0.2202,-0.2186,-0.2195,-0.2354,-0.2355,-0.2802,-0.2807,-0.281]}],[{"header":{"parameterUnit":"m.s-1","parameterCategory":2,"la1":30.2991,"la2":30.254,"lo1":-89.0895,"lo2":-89.0444,"dy":0.0017,"dx":0.0017,"nx":28,"ny":28,"refTime":"2024-06-30T21:00:00:Z","depth":"2","parameterNumber":2,"parameterNumberName":"U-component_of_CURRENTS"},"data":[0,0,0,0,0,0,0,0,0,0,0,0,0,0,0,0,0,0,0,0,0,0,0,0,0,0,0,0,0,0,0,0,0,0,0,0,0,0,0,0,0,0,0,0,0,0,0,0,0,0,0,0,0,0,0,0,0,0,0.2145,0.2146,0,0.2181,0.2182,0.2182,0.2148,0.2147,0.2146,0.2144,0.2142,0.2143,0.2144,0,0,0,0,0,0,0,0,0,0,0,0,0,0.2047,0.2048,0.2145,0.2146,0.2146,0.2181,0.2182,0.2182,0.2148,0.2147,0.2145,0.2144,0.2142,0.2143,0.2144,0,0,0,0,0,0,0,0,0,0,0,0,0,0.2085,0.2049,0.2145,0.2135,0.2134,0.2181,0.2182,0.2182,0.2149,0.2147,0.2145,0.2143,0.2142,0.2143,0.2145,0.2191,0,0,0.215,0.215,0,0,0,0,0,0,0,0,0.2083,0.2089,0.2136,0.2136,0.2135,0.216,0.2146,0.2184,0.2149,0.2141,0.2144,0.2142,0.2147,0.2148,0.2157,0.2191,0.219,0.215,0.2151,0.2151,0.2152,0,0,0,0,0,0,0,0.208,0.2087,0.2158,0.2137,0.2136,0.2129,0.2132,0.2153,0.2152,0.2142,0.214,0.2147,0.2146,0.2156,0.2157,0.219,0.215,0.2151,0.2152,0.2153,0.2285,0.2287,0,0,0,0,0,0,0.2082,0.2085,0.2156,0.2159,0.2106,0.2132,0.2136,0.2152,0.2152,0.2152,0.2149,0.2146,0.2154,0.2155,0.2156,0.2224,0.2151,0.2153,0.2154,0.2282,0.2285,0.2288,0,0,0,0,0,0,0.208,0.2088,0.2155,0.2123,0.2131,0.2136,0.2155,0.2154,0.2155,0.2158,0.2156,0.2149,0.2152,0.2154,0.2189,0.2223,0.2154,0.2155,0.2279,0.2283,0.2287,0.235,0,0,0,0,0,0,0.2077,0.2088,0.2096,0.2124,0.2133,0.2186,0.2157,0.2156,0.2164,0.216,0.2159,0.2157,0.2151,0.2187,0.219,0.2223,0.2156,0.2276,0.2281,0.2285,0.2345,0.2356,0.2365,0,0,0,0,0,0.2074,0.2097,0.2096,0.2105,0.2146,0.2187,0.2191,0.2186,0.2166,0.2178,0.2184,0.2157,0.2219,0.219,0.2194,0.2228,0.2274,0.228,0.2285,0.234,0.2354,0.2365,0,0,0,0,0,0,0.2052,0.2097,0.2096,0.213,0.2156,0.2182,0.2193,0.219,0.2206,0.2194,0.2189,0.219,0.2238,0.2231,0.2198,0.2284,0.2243,0.2249,0.2284,0.2296,0.2306,0.2317,0.2158,0,0,0,0,0,0.2055,0.2088,0.2122,0.2148,0.2163,0.2177,0.219,0.2188,0.2207,0.221,0.2209,0.2224,0.227,0.2277,0.2305,0.2347,0.238,0.2373,0.2384,0.2392,0.2407,0.2498,0.2518,0.2307,0.2307,0.2307,0,0,0.2047,0.2083,0.2095,0.2146,0.2163,0.2198,0.218,0.2203,0.2231,0.221,0.2239,0.226,0.2293,0.2347,0.2366,0.2338,0.2474,0.2399,0.2406,0.2417,0.2507,0.2527,0.2545,0.2311,0.231,0.2309,0,0,0.2059,0.2088,0.2115,0.2149,0.2186,0.2207,0.2214,0.2237,0.2246,0.2288,0.2294,0.234,0.2372,0.2417,0.2446,0.2532,0.2532,0.2529,0.2579,0.2667,0.2685,0.2702,0.2785,0.2808,0.2524,0.2524,0.2524,0,0.2038,0.209,0.2127,0.2169,0.2199,0.2213,0.2246,0.2276,0.2303,0.2331,0.23,0.2405,0.2419,0.2527,0.2554,0.2555,0.2599,0.2525,0.268,0.2697,0.2712,0.2794,0.2818,0.2528,0.2528,0.2527,0.2527,0,0.2074,0.2115,0.2139,0.2201,0.2242,0.2273,0.2324,0.235,0.2358,0.2392,0.2478,0.2512,0.2574,0.2591,0.2598,0.272,0.2715,0.2689,0.2645,0.2737,0.2818,0.2842,0.2533,0.2532,0.2531,0.253,0,0,0.2016,0.2135,0.2139,0.2179,0.2259,0.2295,0.2363,0.2436,0.2491,0.2519,0.2603,0.2683,0.2694,0.2729,0.2746,0.2815,0.2963,0.2794,0.2797,0.287,0.3165,0.3156,0.3181,0.2957,0.2962,0.2965,0.3181,0,0.2019,0.2105,0.2166,0.224,0.2289,0.2347,0.2418,0.249,0.2551,0.2634,0.2698,0.2781,0.2752,0.2787,0.286,0.2942,0.3028,0.2907,0.307,0.3076,0.3051,0.321,0.2703,0.2853,0.3205,0.3209,0.3212,0,0.2025,0.209,0.2163,0.2282,0.2306,0.235,0.2471,0.254,0.2676,0.2727,0.2821,0.287,0.2998,0.2945,0.314,0.3061,0.3127,0.3177,0.3186,0.3173,0.3114,0.2817,0.2884,0.3252,0.3249,0.3246,0.3244,0,0.1981,0.2086,0.2146,0.2184,0.2317,0.2354,0.2421,0.2556,0.2627,0.2793,0.2855,0.3005,0.3081,0.319,0.3285,0.3227,0.3494,0.3425,0.3489,0.3488,0.3089,0.3047,0.3584,0.3583,0.3583,0.3582,0.3582,0,0.1981,0.2025,0.2123,0.2161,0.2226,0.2334,0.2421,0.2516,0.2661,0.2763,0.289,0.2992,0.3144,0.3292,0.3361,0.3521,0.3564,0.3551,0.3565,0.31,0.3059,0.3412,0.3389,0.359,0.3589,0.3587,0.3586,0,0.1944,0.2008,0.2072,0.2183,0.221,0.2259,0.2382,0.2458,0.2605,0.2743,0.2794,0.3017,0.3233,0.3386,0.3602,0.3623,0.3768,0.3806,0.3262,0.3211,0.3682,0.366,0.3918,0.392,0.3922,0.3923,0.3924,0,0.1948,0.1976,0.2054,0.2072,0.2115,0.2191,0.2248,0.2404,0.2495,0.2745,0.2812,0.3069,0.3232,0.3567,0.3615,0.3781,0.3879,0.346,0.3275,0.374,0.3727,0.3702,0.3679,0.2761,0.2753,0.2746,0.274,0,0.1943,0.1947,0.1994,0.202,0.2058,0.2116,0.2211,0.2271,0.2474,0.2606,0.2815,0.2965,0.3227,0.318,0.3407,0.3431,0.3393,0.3335,0.396,0.2782,0.2674,0.2654,0.2663,0.2679,0.2685,0.2689,0.2693,0.2695,0.1914,0.1918,0.1947,0.1967,0.1994,0.2033,0.2072,0.2198,0.2331,0.2491,0.2682,0.274,0.2747,0.2851,0.2904,0.2944,0.318,0.2986,0.2995,0.3015,0.287,0.2774,0.2769,0.2776,0.2781,0.2786,0.279,0,0.1884,0.1879,0.1897,0.1915,0.1909,0.1943,0.204,0.2076,0.2198,0.2286,0.2419,0.2132,0.211,0.2218,0.2126,0.2259,0.2146,0.2233,0.1933,0.1991,0.2043,0.1841,0.1472,0.1471,0.1469,0.1468,0,0,0.1869,0.1858,0.1862,0.1828,0.1819,0.1808,0.184,0.1904,0.1945,0.1914,0.1817,0.1905,0.1961,0.1589,0.1614,0.1525,0.1768,0.1493,0.25,0.2187,0.2238,0.2389,0.2133,0,0,0,0,0]},{"header":{"parameterUnit":"m.s-1","parameterCategory":2,"la1":30.2991,"la2":30.254,"lo1":-89.0895,"lo2":-89.0444,"dy":0.0017,"dx":0.0017,"nx":28,"ny":28,"refTime":"2024-06-30T21:00:00:Z","depth":"2","parameterNumber":3,"parameterNumberName":"V-component_of_CURRENTS"},"data":[0,0,0,0,0,0,0,0,0,0,0,0,0,0,0,0,0,0,0,0,0,0,0,0,0,0,0,0,0,0,0,0,0,0,0,0,0,0,0,0,0,0,0,0,0,0,0,0,0,0,0,0,0,0,0,0,0,0,0.0384,0.0383,0,0.0316,0.0316,0.0315,0.027,0.027,0.0269,0.0269,0.0135,0.0131,0.0128,0,0,0,0,0,0,0,0,0,0,0,0,0,0.0441,0.044,0.0384,0.0383,0.0382,0.0317,0.0316,0.0315,0.027,0.027,0.0269,0.0269,0.0136,0.0132,0.0128,0,0,0,0,0,0,0,0,0,0,0,0,0,0.0399,0.044,0.0384,0.0352,0.0349,0.0317,0.0316,0.0314,0.027,0.027,0.0269,0.0269,0.0137,0.0132,0.0127,0.0105,0,0,0.0112,0.011,0,0,0,0,0,0,0,0,0.0401,0.0397,0.0358,0.0354,0.035,0.0301,0.0286,0.0241,0.027,0.03,0.0269,0.0269,0.0185,0.0176,0.0165,0.0099,0.0093,0.0112,0.0109,0.0107,0.0105,0,0,0,0,0,0,0,0.0404,0.0399,0.0357,0.0357,0.0352,0.033,0.0324,0.0278,0.0244,0.0297,0.0294,0.0287,0.0182,0.017,0.0161,0.0091,0.0112,0.0107,0.0104,0.0102,-0.0029,-0.0029,0,0,0,0,0,0,0.0415,0.0402,0.0359,0.0355,0.0376,0.033,0.0323,0.0317,0.0246,0.0235,0.0287,0.0285,0.0178,0.0167,0.0156,0.0127,0.0107,0.0102,0.0099,-0.0028,-0.0029,-0.003,0,0,0,0,0,0,0.0417,0.0412,0.0362,0.0377,0.0369,0.0329,0.0323,0.0316,0.0308,0.0239,0.0227,0.0287,0.0178,0.0163,0.0114,0.0121,0.01,0.0095,-0.0028,-0.0029,-0.0029,0.0067,0,0,0,0,0,0,0.0419,0.0413,0.0416,0.0378,0.0369,0.0356,0.0324,0.0315,0.0304,0.03,0.0234,0.0221,0.0176,0.0122,0.0109,0.0114,0.0091,-0.0027,-0.0028,-0.0029,0.0065,0.007,0.0074,0,0,0,0,0,0.0421,0.0434,0.0417,0.0411,0.0373,0.0357,0.035,0.032,0.0305,0.0309,0.0255,0.0224,0.0106,0.0118,0.0103,0.0106,-0.0027,-0.0028,-0.0029,0.0063,0.0069,0.0074,0,0,0,0,0,0,0.047,0.0429,0.041,0.0411,0.0389,0.0349,0.0351,0.0328,0.0291,0.0286,0.0219,0.0202,0.0165,0.0116,0.013,0.0062,0.0034,0.003,0.0108,0.0114,0.0118,0.0148,0.0087,0,0,0,0,0,0.0479,0.0474,0.0434,0.0439,0.0429,0.0391,0.0381,0.0362,0.0323,0.0307,0.0254,0.0194,0.0148,0.0117,0.0069,0.0031,-0.0012,0.002,0.0025,0.003,0.0041,-0.0027,-0.0026,-0.0033,-0.0033,-0.0033,0,0,0.0501,0.0479,0.0477,0.0449,0.0428,0.0426,0.0385,0.038,0.0377,0.0296,0.0271,0.0215,0.0143,0.0105,0.0082,0.0064,0.001,0.0028,0.0033,0.0042,-0.0028,-0.0027,-0.0026,-0.0034,-0.0034,-0.0034,0,0,0.0544,0.0522,0.0529,0.0514,0.0487,0.0463,0.0465,0.0424,0.0404,0.0373,0.0314,0.0261,0.0188,0.0135,0.01,0.0098,0.0045,0.008,0.0123,0.0057,0.0058,0.0058,0.0019,0.0015,0.0075,0.0075,0.0075,0,0.0571,0.0572,0.0532,0.0537,0.0533,0.0485,0.0499,0.0474,0.0421,0.0405,0.0379,0.0268,0.0205,0.0155,0.0151,0.0113,0.0074,0.0114,0.0066,0.0065,0.0063,0.0023,0.0018,0.008,0.0079,0.0079,0.0078,0,0.0611,0.0616,0.0625,0.0609,0.0602,0.061,0.057,0.0553,0.0521,0.0487,0.0437,0.0346,0.0278,0.0246,0.0199,0.0153,0.0131,0.009,0.0062,0.0071,0.0027,0.002,0.0086,0.0085,0.0083,0.0082,0,0,0.0652,0.0653,0.0654,0.0665,0.0642,0.0642,0.0638,0.0617,0.0619,0.0552,0.0541,0.0442,0.0388,0.0344,0.0268,0.0205,0.0158,0.0149,0.0143,0.013,0.0033,0.0052,0.0044,0.0109,0.0108,0.0107,0.0013,0,0.0694,0.0729,0.0711,0.0747,0.0762,0.0726,0.0729,0.0704,0.067,0.0645,0.0551,0.0508,0.0427,0.0392,0.0319,0.0202,0.014,0.0189,0.0009,0.0004,0.0035,0.0036,0.0002,-0.0082,0.0005,0.0004,0.0003,0,0.0723,0.0747,0.0792,0.0818,0.0821,0.0833,0.0832,0.083,0.0783,0.0756,0.0693,0.0619,0.0521,0.045,0.0263,0.0299,0.0177,0.0084,0.0077,0.0058,0.0008,-0.0083,-0.01,-0.0011,-0.001,-0.0009,-0.0008,0,0.0759,0.0797,0.084,0.0848,0.0867,0.0881,0.0887,0.0862,0.0871,0.0822,0.0819,0.0695,0.0633,0.047,0.0278,0.0263,0.0084,0.0032,-0.0064,-0.0064,-0.0146,-0.0151,-0.0102,-0.0102,-0.0102,-0.0101,-0.0101,0,0.0797,0.083,0.0864,0.0888,0.0945,0.0935,0.0979,0.0967,0.0962,0.0984,0.0875,0.0866,0.0631,0.0501,0.0318,0.0121,0.0105,-0.0046,-0.0088,-0.0112,-0.0112,-0.0099,-0.0097,-0.0105,-0.0104,-0.0103,-0.0103,0,0.082,0.0843,0.0899,0.0944,0.0963,0.1001,0.105,0.1081,0.1066,0.1092,0.1079,0.0981,0.0822,0.0596,0.0337,0.0181,-0.0016,-0.0089,-0.0079,-0.0117,-0.013,-0.0122,-0.0203,-0.0203,-0.0203,-0.0203,-0.0203,0,0.0834,0.0864,0.0942,0.0987,0.1011,0.1068,0.1112,0.1129,0.117,0.117,0.1193,0.1065,0.1012,0.0672,0.036,0.0064,-0.0001,-0.0174,-0.0213,-0.0107,-0.0141,-0.0133,-0.0126,-0.0292,-0.0292,-0.0293,-0.0294,0,0.0862,0.0888,0.094,0.1034,0.1098,0.1174,0.124,0.1291,0.1313,0.1347,0.1376,0.1345,0.1049,0.0728,0.0332,0.0133,-0.0124,-0.0193,-0.0119,-0.0237,-0.0193,-0.0225,-0.0215,-0.0299,-0.0299,-0.0298,-0.0298,-0.0298,0.0877,0.0923,0.0995,0.1082,0.1166,0.1266,0.1332,0.1414,0.15,0.1552,0.1533,0.142,0.1052,0.0513,0.0212,-0.0132,-0.0094,-0.0288,-0.0287,-0.0284,-0.0254,-0.021,-0.0314,-0.0313,-0.0313,-0.0312,-0.0312,0,0.0891,0.0951,0.1036,0.1147,0.1241,0.1287,0.141,0.1474,0.1591,0.1597,0.1644,0.1178,0.0864,0.0443,-0.0059,-0.0298,-0.0321,-0.0415,-0.0435,-0.0426,-0.042,-0.0397,-0.0495,-0.0496,-0.0497,-0.0498,0,0,0.0902,0.0976,0.1027,0.1181,0.1269,0.1398,0.1475,0.158,0.1595,0.1556,0.141,0.1357,0.0824,0.0381,0.0042,-0.024,-0.0258,-0.0278,-0.0106,-0.0078,-0.0068,-0.0327,-0.0279,0,0,0,0,0]}],[{"header":{"parameterUnit":"m.s-1","parameterCategory":2,"la1":30.2991,"la2":30.254,"lo1":-89.0895,"lo2":-89.0444,"dy":0.0017,"dx":0.0017,"nx":28,"ny":28,"refTime":"2024-06-30T21:00:00:Z","depth":"4","parameterNumber":2,"parameterNumberName":"U-component_of_CURRENTS"},"data":[0,0,0,0,0,0,0,0,0,0,0,0,0,0,0,0,0,0,0,0,0,0,0,0,0,0,0,0,0,0,0,0,0,0,0,0,0,0,0,0,0,0,0,0,0,0,0,0,0,0,0,0,0,0,0,0,0,0,0.0776,0.0776,0,0.0858,0.086,0.0861,0.0965,0.0967,0.0968,0.0969,0.1036,0.1036,0.1037,0,0,0,0,0,0,0,0,0,0,0,0,0,0.0745,0.0745,0.0776,0.0776,0.0776,0.0858,0.086,0.0862,0.0965,0.0967,0.0968,0.0969,0.1035,0.1036,0.1037,0,0,0,0,0,0,0,0,0,0,0,0,0,0.0792,0.0745,0.0776,0.0833,0.0839,0.0858,0.086,0.0862,0.0965,0.0967,0.0968,0.097,0.1035,0.1036,0.1037,0.1013,0,0,0.1041,0.1041,0,0,0,0,0,0,0,0,0.0789,0.0794,0.0824,0.0829,0.0835,0.0898,0.0873,0.0909,0.0965,0.0924,0.0969,0.097,0.0982,0.0988,0.101,0.1016,0.1019,0.1041,0.1042,0.1042,0.1043,0,0,0,0,0,0,0,0.0786,0.0791,0.0815,0.0824,0.0831,0.0867,0.0876,0.0882,0.0948,0.0928,0.0934,0.0932,0.0987,0.1008,0.1012,0.102,0.1041,0.1042,0.1043,0.1043,0.1147,0.1148,0,0,0,0,0,0,0.0759,0.0788,0.0812,0.0817,0.0808,0.0866,0.0876,0.0881,0.0949,0.0959,0.0931,0.0936,0.1005,0.101,0.1014,0.1105,0.1042,0.1043,0.1044,0.1145,0.1147,0.1149,0,0,0,0,0,0,0.0758,0.076,0.0809,0.0799,0.0807,0.0864,0.0869,0.0882,0.0944,0.095,0.0961,0.0984,0.1007,0.1013,0.1079,0.1104,0.1044,0.1045,0.1142,0.1145,0.1148,0.1212,0,0,0,0,0,0,0.0757,0.076,0.0768,0.0797,0.0806,0.0848,0.0867,0.0882,0.0935,0.0945,0.0997,0.1004,0.1009,0.1078,0.108,0.1105,0.1046,0.114,0.1144,0.1147,0.1207,0.1217,0.1225,0,0,0,0,0,0.0756,0.0757,0.0768,0.0771,0.0811,0.0848,0.0859,0.0908,0.0936,0.0971,0.1024,0.1004,0.1103,0.1081,0.1083,0.1108,0.1138,0.1142,0.1147,0.1203,0.1215,0.1225,0,0,0,0,0,0,0.0753,0.0768,0.0781,0.0789,0.0826,0.0864,0.0898,0.0926,0.0996,0.1019,0.1035,0.1045,0.111,0.1104,0.1079,0.1151,0.1114,0.1119,0.1156,0.1167,0.1176,0.1181,0.1047,0,0,0,0,0,0.0749,0.0764,0.0783,0.08,0.0819,0.0866,0.0891,0.0925,0.0976,0.1011,0.1047,0.1086,0.1122,0.1145,0.1171,0.1208,0.12,0.1225,0.1234,0.1242,0.1249,0.1257,0.1266,0.1164,0.1164,0.1164,0,0,0.0753,0.0764,0.0774,0.0802,0.0841,0.087,0.0891,0.0943,0.0984,0.1002,0.1088,0.112,0.1142,0.1198,0.1223,0.1201,0.1272,0.1247,0.1253,0.1257,0.1262,0.1272,0.128,0.1167,0.1167,0.1166,0,0,0.0769,0.0785,0.0805,0.0831,0.0877,0.09,0.0921,0.0978,0.1031,0.1125,0.1129,0.1181,0.1265,0.1257,0.1271,0.1339,0.1321,0.1355,0.14,0.1407,0.1415,0.1422,0.1442,0.145,0.1356,0.1356,0.1356,0,0.0783,0.0797,0.0821,0.0846,0.0874,0.0916,0.0954,0.0998,0.1075,0.1121,0.1176,0.129,0.1292,0.1322,0.1357,0.1354,0.1373,0.1355,0.1417,0.1423,0.1429,0.1448,0.1456,0.1359,0.1359,0.1359,0.1358,0,0.0794,0.0826,0.0848,0.0889,0.0924,0.0967,0.1013,0.107,0.1158,0.121,0.1318,0.1356,0.1427,0.1423,0.1427,0.1453,0.1459,0.1427,0.1384,0.1443,0.1459,0.1467,0.1365,0.1363,0.1362,0.1361,0,0,0.0798,0.0846,0.0865,0.0899,0.0954,0.0992,0.1055,0.1129,0.1188,0.1302,0.1406,0.1464,0.1508,0.1524,0.1508,0.1507,0.1559,0.1502,0.1501,0.1513,0.1608,0.1473,0.1467,0.1552,0.1554,0.1555,0.1609,0,0.082,0.0871,0.0891,0.0966,0.1002,0.1052,0.1114,0.1185,0.1277,0.1381,0.1447,0.1552,0.1536,0.16,0.1596,0.1568,0.158,0.1549,0.1557,0.1557,0.1421,0.147,0.1559,0.1614,0.1615,0.1616,0.1617,0,0.0824,0.0868,0.0939,0.1022,0.1048,0.1113,0.1223,0.1289,0.14,0.1487,0.1589,0.1643,0.1686,0.1682,0.1682,0.1678,0.1664,0.1636,0.1637,0.149,0.1434,0.154,0.1629,0.1628,0.1627,0.1627,0.1626,0,0.0817,0.0901,0.0969,0.0995,0.1089,0.1173,0.126,0.1358,0.1424,0.1583,0.1652,0.1724,0.1804,0.1792,0.1733,0.1746,0.1714,0.1717,0.158,0.1572,0.1648,0.164,0.1725,0.1725,0.1725,0.1725,0.1725,0,0.0806,0.0871,0.0999,0.1038,0.1159,0.1239,0.1373,0.1455,0.1577,0.1631,0.1737,0.1749,0.1842,0.1817,0.177,0.1676,0.1748,0.1599,0.1573,0.1678,0.1672,0.1654,0.1645,0.1727,0.1726,0.1726,0.1726,0,0.0776,0.0848,0.0937,0.1086,0.1161,0.1272,0.1456,0.1504,0.1645,0.1719,0.1784,0.1832,0.1792,0.1788,0.1759,0.1713,0.1631,0.1571,0.1687,0.1665,0.1499,0.1493,0.1497,0.1492,0.1489,0.1486,0.1483,0,0.0749,0.0799,0.0978,0.1058,0.1154,0.1329,0.1408,0.1559,0.1579,0.1689,0.1676,0.1724,0.1719,0.1556,0.1583,0.1524,0.1483,0.1507,0.1517,0.1499,0.1474,0.1474,0.1474,0.1477,0.1476,0.1475,0.1474,0,0.0704,0.079,0.0853,0.1014,0.1138,0.1232,0.1368,0.1361,0.1474,0.1618,0.1529,0.1525,0.1473,0.144,0.1408,0.1345,0.1538,0.1469,0.1478,0.1488,0.1475,0.1454,0.1458,0.1461,0.1463,0.1464,0.1465,0,0.0664,0.07,0.0793,0.0927,0.1082,0.1104,0.1165,0.1171,0.1217,0.1333,0.1286,0.1299,0.1401,0.1339,0.1264,0.124,0.1258,0.1276,0.1296,0.1312,0.1225,0.118,0.1058,0,0,0,0,0,0.0608,0.0628,0.0708,0.0804,0.0946,0.103,0.1107,0.113,0.1229,0.1123,0.1213,0.1135,0.1115,0.1116,0.1053,0.1199,0.1256,0.1131,0.1286,0.1389,0.1404,0.132,0,0,0,0,0,0,0.0567,0.0618,0.0638,0.0691,0.0758,0.0836,0.0879,0.0905,0.0841,0.0974,0.0917,0.1121,0.1052,0.1126,0.1045,0.1062,0.115,0.1195,0.1193,0.138,0.1394,0.1406,0.1325,0,0,0,0,0]},{"header":{"parameterUnit":"m.s-1","parameterCategory":2,"la1":30.2991,"la2":30.254,"lo1":-89.0895,"lo2":-89.0444,"dy":0.0017,"dx":0.0017,"nx":28,"ny":28,"refTime":"2024-06-30T21:00:00:Z","depth":"4","parameterNumber":3,"parameterNumberName":"V-component_of_CURRENTS"},"data":[0,0,0,0,0,0,0,0,0,0,0,0,0,0,0,0,0,0,0,0,0,0,0,0,0,0,0,0,0,0,0,0,0,0,0,0,0,0,0,0,0,0,0,0,0,0,0,0,0,0,0,0,0,0,0,0,0,0,-0.0236,-0.0236,0,-0.0292,-0.0293,-0.0294,-0.0375,-0.0375,-0.0376,-0.0377,-0.0457,-0.0458,-0.0459,0,0,0,0,0,0,0,0,0,0,0,0,0,-0.0236,-0.0236,-0.0236,-0.0236,-0.0236,-0.0291,-0.0293,-0.0294,-0.0374,-0.0375,-0.0376,-0.0377,-0.0456,-0.0458,-0.0459,0,0,0,0,0,0,0,0,0,0,0,0,0,-0.0265,-0.0236,-0.0236,-0.0278,-0.0281,-0.0291,-0.0293,-0.0295,-0.0374,-0.0375,-0.0377,-0.0378,-0.0456,-0.0458,-0.046,-0.0449,0,0,-0.0466,-0.0467,0,0,0,0,0,0,0,0,-0.0263,-0.0265,-0.0271,-0.0275,-0.0279,-0.0321,-0.0322,-0.0345,-0.0374,-0.0346,-0.0377,-0.0378,-0.0408,-0.0414,-0.0431,-0.0453,-0.0456,-0.0466,-0.0467,-0.0468,-0.0469,0,0,0,0,0,0,0,-0.0261,-0.0264,-0.0265,-0.0271,-0.0276,-0.0306,-0.0312,-0.0327,-0.0375,-0.0349,-0.0353,-0.0348,-0.0412,-0.0429,-0.0434,-0.0457,-0.0466,-0.0468,-0.0469,-0.047,-0.0601,-0.0603,0,0,0,0,0,0,-0.0237,-0.0261,-0.0263,-0.0265,-0.0266,-0.0304,-0.0311,-0.0312,-0.0375,-0.0384,-0.0347,-0.0351,-0.0425,-0.0431,-0.0437,-0.0513,-0.0468,-0.047,-0.0471,-0.0599,-0.0601,-0.0604,0,0,0,0,0,0,-0.0237,-0.0237,-0.026,-0.0259,-0.0264,-0.0302,-0.0303,-0.0312,-0.0354,-0.0372,-0.0383,-0.0381,-0.0426,-0.0434,-0.0499,-0.0513,-0.0471,-0.0473,-0.0596,-0.0599,-0.0602,-0.0611,0,0,0,0,0,0,-0.0237,-0.0237,-0.0239,-0.0258,-0.0262,-0.0283,-0.0301,-0.0312,-0.0344,-0.0352,-0.0404,-0.0411,-0.0428,-0.0496,-0.0501,-0.0516,-0.0475,-0.0593,-0.0597,-0.0601,-0.0608,-0.0614,-0.0619,0,0,0,0,0,-0.0237,-0.0231,-0.0239,-0.0239,-0.0261,-0.0283,-0.029,-0.0326,-0.0345,-0.0368,-0.0423,-0.0411,-0.0526,-0.05,-0.0505,-0.052,-0.0591,-0.0596,-0.0601,-0.0605,-0.0613,-0.0619,0,0,0,0,0,0,-0.0235,-0.0238,-0.0248,-0.0244,-0.0269,-0.0295,-0.0312,-0.0334,-0.0394,-0.0407,-0.0439,-0.0451,-0.0524,-0.0524,-0.0494,-0.0576,-0.0556,-0.0562,-0.0557,-0.0565,-0.057,-0.0542,-0.0476,0,0,0,0,0,-0.023,-0.0232,-0.0244,-0.0247,-0.0257,-0.0289,-0.0305,-0.0327,-0.037,-0.0398,-0.0436,-0.0484,-0.0542,-0.0556,-0.0607,-0.0632,-0.0619,-0.0649,-0.0655,-0.066,-0.0645,-0.0652,-0.0655,-0.062,-0.062,-0.062,0,0,-0.0234,-0.0232,-0.0236,-0.0247,-0.0271,-0.0279,-0.0305,-0.033,-0.0348,-0.0394,-0.045,-0.0516,-0.0564,-0.0621,-0.0647,-0.0619,-0.0667,-0.0666,-0.0669,-0.0651,-0.0657,-0.066,-0.0663,-0.0623,-0.0623,-0.0622,0,0,-0.023,-0.0239,-0.0239,-0.0252,-0.0271,-0.0286,-0.0295,-0.0334,-0.0369,-0.0442,-0.048,-0.055,-0.0637,-0.0654,-0.0681,-0.0742,-0.0718,-0.0767,-0.0744,-0.0752,-0.0753,-0.0754,-0.0746,-0.0746,-0.0744,-0.0744,-0.0744,0,-0.0233,-0.0226,-0.0246,-0.0245,-0.0251,-0.0287,-0.0292,-0.0325,-0.0385,-0.0414,-0.0473,-0.0616,-0.0652,-0.0692,-0.0726,-0.0749,-0.0749,-0.0707,-0.0754,-0.0755,-0.0756,-0.0747,-0.0747,-0.0745,-0.0745,-0.0745,-0.0745,0,-0.0219,-0.0223,-0.0226,-0.0232,-0.0248,-0.0258,-0.0289,-0.0324,-0.0392,-0.0434,-0.0539,-0.0621,-0.0691,-0.0725,-0.0753,-0.0771,-0.0769,-0.0777,-0.0723,-0.0759,-0.0749,-0.0748,-0.0746,-0.0746,-0.0746,-0.0745,0,0,-0.0195,-0.0212,-0.0214,-0.0217,-0.0239,-0.0248,-0.0278,-0.0315,-0.0331,-0.045,-0.05,-0.0626,-0.0673,-0.0705,-0.0738,-0.0747,-0.0764,-0.0761,-0.0761,-0.0727,-0.0774,-0.0721,-0.0715,-0.0782,-0.0782,-0.0782,-0.0763,0,-0.0179,-0.0171,-0.0187,-0.0191,-0.0189,-0.0226,-0.0248,-0.0289,-0.0357,-0.0412,-0.0517,-0.0586,-0.0658,-0.0693,-0.0726,-0.0765,-0.0765,-0.0768,-0.0765,-0.0764,-0.0691,-0.0713,-0.0783,-0.0763,-0.0763,-0.0763,-0.0763,0,-0.0148,-0.0147,-0.0145,-0.0163,-0.0168,-0.0179,-0.0209,-0.0238,-0.0309,-0.037,-0.0458,-0.0526,-0.0581,-0.064,-0.071,-0.0714,-0.0739,-0.0769,-0.0769,-0.0709,-0.071,-0.0722,-0.0762,-0.0762,-0.0762,-0.0762,-0.0762,0,-0.0102,-0.0114,-0.0111,-0.0115,-0.0141,-0.0159,-0.0187,-0.0236,-0.0243,-0.0324,-0.034,-0.045,-0.0482,-0.057,-0.0642,-0.0676,-0.0705,-0.0751,-0.0721,-0.0717,-0.0764,-0.0762,-0.0773,-0.0773,-0.0773,-0.0773,-0.0773,0,-0.0061,-0.0061,-0.0093,-0.0088,-0.0086,-0.0132,-0.0136,-0.0175,-0.0211,-0.0193,-0.0307,-0.0307,-0.0464,-0.0502,-0.0605,-0.0652,-0.0669,-0.071,-0.0707,-0.0772,-0.0772,-0.0763,-0.0762,-0.0772,-0.0772,-0.0772,-0.0773,0,-0.0016,-0.0036,-0.0028,-0.0056,-0.0062,-0.0071,-0.0086,-0.0075,-0.0119,-0.0094,-0.0105,-0.0179,-0.0252,-0.0377,-0.0484,-0.0553,-0.0631,-0.0626,-0.0657,-0.0658,-0.0653,-0.0653,-0.0622,-0.062,-0.0618,-0.0616,-0.0615,0,0.0005,0.0014,0.0008,0.0017,-0.0,-0.0011,0.0001,-0.0034,-0.0,-0.0002,0.003,-0.0022,-0.0085,-0.0208,-0.0362,-0.0528,-0.0548,-0.0562,-0.0654,-0.0636,-0.0637,-0.064,-0.0643,-0.0612,-0.0612,-0.0611,-0.0611,0,0.0041,0.0037,0.0044,0.0079,0.0091,0.0112,0.0125,0.0164,0.0155,0.0152,0.0161,0.0074,0.0008,-0.0168,-0.0261,-0.0393,-0.0561,-0.0545,-0.0552,-0.0638,-0.0624,-0.0628,-0.0633,-0.0605,-0.0606,-0.0606,-0.0607,0,0.0066,0.0079,0.01,0.0125,0.0168,0.0208,0.0201,0.0239,0.0258,0.0267,0.028,0.0152,0.0086,-0.0091,-0.0195,-0.0308,-0.0371,-0.041,-0.0425,-0.0433,-0.0402,-0.0358,-0.0241,0,0,0,0,0,0.0089,0.0104,0.0141,0.0169,0.0228,0.0241,0.0291,0.0288,0.0316,0.0345,0.0308,0.0234,0.0062,-0.0031,-0.0139,-0.0194,-0.04,-0.032,-0.0454,-0.0571,-0.0578,-0.057,0,0,0,0,0,0,0.0094,0.0133,0.0147,0.0219,0.0246,0.0303,0.0327,0.0334,0.034,0.0347,0.0241,0.0224,0.003,0.0113,-0.0142,-0.0176,-0.0268,-0.0404,-0.0405,-0.0567,-0.0573,-0.0579,-0.0573,0,0,0,0,0]}]]